Time,TemperatureF,DewpointF,PressureIn,WindDirection,WindDirectionDegrees,WindSpeedMPH,WindSpeedGustMPH,Humidity,HourlyPrecipIn,Conditions,Clouds,dailyrainin,SoftwareType,DateUTC
2013-11-18 00:04:00,40.8,32.8,30.20,NW,318,0.0,1.0,73,0.00,,,0.00,WeatherTracker,2013-11-18 07:04:00,
2013-11-18 00:09:00,40.9,32.6,30.20,NW,318,0.0,1.0,72,0.00,,,0.00,WeatherTracker,2013-11-18 07:09:00,
2013-11-18 00:14:00,40.8,32.8,30.20,NW,318,0.0,1.0,73,0.00,,,0.00,WeatherTracker,2013-11-18 07:14:00,
2013-11-18 00:19:00,41.0,32.7,30.20,NW,317,1.0,1.0,72,0.00,,,0.00,WeatherTracker,2013-11-18 07:19:00,
2013-11-18 00:24:00,41.1,32.8,30.20,NW,317,0.0,1.0,72,0.00,,,0.00,WeatherTracker,2013-11-18 07:24:00,
2013-11-18 00:29:00,40.8,32.8,30.19,NW,317,0.0,1.0,73,0.00,,,0.00,WeatherTracker,2013-11-18 07:29:00,
2013-11-18 00:34:00,40.7,32.7,30.19,NW,317,0.0,1.0,73,0.00,,,0.00,WeatherTracker,2013-11-18 07:34:00,
2013-11-18 00:39:00,40.8,32.8,30.20,NW,317,0.0,1.0,73,0.00,,,0.00,WeatherTracker,2013-11-18 07:39:00,
2013-11-18 00:44:00,40.8,32.5,30.20,NW,317,0.0,1.0,72,0.00,,,0.00,WeatherTracker,2013-11-18 07:44:00,
2013-11-18 00:49:00,40.7,32.7,30.20,NW,317,0.0,0.0,73,0.00,,,0.00,WeatherTracker,2013-11-18 07:49:00,
2013-11-18 00:54:00,40.8,32.8,30.20,NW,317,1.0,1.0,73,0.00,,,0.00,WeatherTracker,2013-11-18 07:54:00,
2013-11-18 00:59:00,41.1,32.4,30.20,NW,317,0.0,1.0,71,0.00,,,0.00,WeatherTracker,2013-11-18 07:59:00,
2013-11-18 01:04:00,40.9,32.6,30.20,NW,317,0.0,1.0,72,0.00,,,0.00,WeatherTracker,2013-11-18 08:04:00,
2013-11-18 01:09:00,40.9,32.6,30.20,NW,317,0.0,0.0,72,0.00,,,0.00,WeatherTracker,2013-11-18 08:09:00,
2013-11-18 01:14:00,40.7,32.4,30.20,NW,317,0.0,0.0,72,0.00,,,0.00,WeatherTracker,2013-11-18 08:14:00,
2013-11-18 01:19:00,40.3,32.3,30.21,NW,317,0.0,1.0,73,0.00,,,0.00,WeatherTracker,2013-11-18 08:19:00,
2013-11-18 01:25:00,40.0,32.4,30.21,NW,317,0.0,1.0,74,0.00,,,0.00,WeatherTracker,2013-11-18 08:25:00,
2013-11-18 01:30:00,40.3,32.7,30.21,NW,317,0.0,0.0,74,0.00,,,0.00,WeatherTracker,2013-11-18 08:30:00,
2013-11-18 01:35:00,39.9,32.3,30.21,NW,317,0.0,0.0,74,0.00,,,0.00,WeatherTracker,2013-11-18 08:35:00,
2013-11-18 01:40:00,39.7,32.4,30.21,NW,317,0.0,1.0,75,0.00,,,0.00,WeatherTracker,2013-11-18 08:40:00,
2013-11-18 01:45:00,39.9,32.6,30.22,NW,317,0.0,1.0,75,0.00,,,0.00,WeatherTracker,2013-11-18 08:45:00,
2013-11-18 01:50:00,40.4,32.8,30.22,NW,317,0.0,0.0,74,0.00,,,0.00,WeatherTracker,2013-11-18 08:50:00,
2013-11-18 01:55:00,40.2,32.2,30.22,NW,317,0.0,0.0,73,0.00,,,0.00,WeatherTracker,2013-11-18 08:55:00,
2013-11-18 02:00:00,39.9,32.3,30.23,NW,317,0.0,0.0,74,0.00,,,0.00,WeatherTracker,2013-11-18 09:00:00,
2013-11-18 02:05:00,40.0,32.4,30.23,NW,317,0.0,0.0,74,0.00,,,0.00,WeatherTracker,2013-11-18 09:05:00,
2013-11-18 02:10:00,39.6,32.3,30.23,NW,317,0.0,0.0,75,0.00,,,0.00,WeatherTracker,2013-11-18 09:10:00,
2013-11-18 02:15:00,39.2,32.0,30.23,NW,317,0.0,0.0,75,0.00,,,0.00,WeatherTracker,2013-11-18 09:15:00,
2013-11-18 02:20:00,38.9,32.0,30.23,NW,317,0.0,0.0,76,0.00,,,0.00,WeatherTracker,2013-11-18 09:20:00,
2013-11-18 02:25:00,38.6,32.0,30.23,NW,317,0.0,0.0,77,0.00,,,0.00,WeatherTracker,2013-11-18 09:25:00,
2013-11-18 02:30:00,38.6,32.0,30.23,NW,317,0.0,0.0,77,0.00,,,0.00,WeatherTracker,2013-11-18 09:30:00,
2013-11-18 02:35:00,38.5,31.9,30.22,NW,317,0.0,0.0,77,0.00,,,0.00,WeatherTracker,2013-11-18 09:35:00,
2013-11-18 02:40:00,38.6,32.0,30.22,NW,317,0.0,0.0,77,0.00,,,0.00,WeatherTracker,2013-11-18 09:40:00,
2013-11-18 02:45:00,38.6,32.0,30.22,NW,317,0.0,0.0,77,0.00,,,0.00,WeatherTracker,2013-11-18 09:45:00,
2013-11-18 02:50:00,38.2,32.0,30.23,NW,317,0.0,0.0,78,0.00,,,0.00,WeatherTracker,2013-11-18 09:50:00,
2013-11-18 02:55:00,38.4,32.1,30.22,NW,317,0.0,0.0,78,0.00,,,0.00,WeatherTracker,2013-11-18 09:55:00,
2013-11-18 03:00:00,38.2,32.0,30.22,NW,317,0.0,0.0,78,0.00,,,0.00,WeatherTracker,2013-11-18 10:00:00,
2013-11-18 03:05:00,38.0,31.8,30.22,NW,317,0.0,0.0,78,0.00,,,0.00,WeatherTracker,2013-11-18 10:05:00,
2013-11-18 03:10:00,37.6,31.7,30.22,NW,317,0.0,0.0,79,0.00,,,0.00,WeatherTracker,2013-11-18 10:10:00,
2013-11-18 03:15:00,37.5,31.9,30.22,NW,317,0.0,0.0,80,0.00,,,0.00,WeatherTracker,2013-11-18 10:15:00,
2013-11-18 03:20:00,37.5,31.9,30.22,NW,317,0.0,0.0,80,0.00,,,0.00,WeatherTracker,2013-11-18 10:20:00,
2013-11-18 03:26:00,37.3,31.7,30.23,NW,317,0.0,0.0,80,0.00,,,0.00,WeatherTracker,2013-11-18 10:26:00,
2013-11-18 03:31:00,37.2,31.6,30.23,NW,317,0.0,0.0,80,0.00,,,0.00,WeatherTracker,2013-11-18 10:31:00,
2013-11-18 03:36:00,37.6,31.7,30.22,NW,317,0.0,0.0,79,0.00,,,0.00,WeatherTracker,2013-11-18 10:36:00,
2013-11-18 03:41:00,37.3,31.4,30.22,NW,317,0.0,0.0,79,0.00,,,0.00,WeatherTracker,2013-11-18 10:41:00,
2013-11-18 03:46:00,37.1,31.5,30.22,NW,317,0.0,0.0,80,0.00,,,0.00,WeatherTracker,2013-11-18 10:46:00,
2013-11-18 03:51:00,37.4,31.8,30.22,NW,317,0.0,0.0,80,0.00,,,0.00,WeatherTracker,2013-11-18 10:51:00,
2013-11-18 03:56:00,37.9,31.3,30.22,NW,317,0.0,0.0,77,0.00,,,0.00,WeatherTracker,2013-11-18 10:56:00,
2013-11-18 04:01:00,37.9,31.3,30.22,NW,317,0.0,0.0,77,0.00,,,0.00,WeatherTracker,2013-11-18 11:01:00,
2013-11-18 04:06:00,37.9,31.3,30.22,NW,317,0.0,0.0,77,0.00,,,0.00,WeatherTracker,2013-11-18 11:06:00,
2013-11-18 04:11:00,37.8,31.2,30.23,NW,317,0.0,0.0,77,0.00,,,0.00,WeatherTracker,2013-11-18 11:11:00,
2013-11-18 04:16:00,37.8,31.2,30.23,NW,317,0.0,0.0,77,0.00,,,0.00,WeatherTracker,2013-11-18 11:16:00,
2013-11-18 04:21:00,37.4,30.9,30.23,NW,317,0.0,0.0,77,0.00,,,0.00,WeatherTracker,2013-11-18 11:21:00,
2013-11-18 04:26:00,37.2,31.0,30.23,NW,317,0.0,0.0,78,0.00,,,0.00,WeatherTracker,2013-11-18 11:26:00,
2013-11-18 04:31:00,37.1,30.9,30.23,NW,317,0.0,0.0,78,0.00,,,0.00,WeatherTracker,2013-11-18 11:31:00,
2013-11-18 04:36:00,37.3,31.1,30.23,NW,317,0.0,0.0,78,0.00,,,0.00,WeatherTracker,2013-11-18 11:36:00,
2013-11-18 04:42:00,37.4,30.9,30.23,NW,317,0.0,0.0,77,0.00,,,0.00,WeatherTracker,2013-11-18 11:42:00,
2013-11-18 04:46:00,37.2,30.7,30.23,NW,317,0.0,0.0,77,0.00,,,0.00,WeatherTracker,2013-11-18 11:46:00,
2013-11-18 04:52:00,37.1,30.6,30.24,NW,317,0.0,0.0,77,0.00,,,0.00,WeatherTracker,2013-11-18 11:52:00,
2013-11-18 04:57:00,36.7,30.5,30.23,NW,317,0.0,0.0,78,0.00,,,0.00,WeatherTracker,2013-11-18 11:57:00,
2013-11-18 05:02:00,36.6,30.7,30.24,NW,317,0.0,0.0,79,0.00,,,0.00,WeatherTracker,2013-11-18 12:02:00,
2013-11-18 05:07:00,36.6,30.4,30.24,NW,317,0.0,0.0,78,0.00,,,0.00,WeatherTracker,2013-11-18 12:07:00,
2013-11-18 05:12:00,36.5,30.6,30.24,NW,317,0.0,0.0,79,0.00,,,0.00,WeatherTracker,2013-11-18 12:12:00,
2013-11-18 05:17:00,36.6,30.7,30.24,NW,317,0.0,1.0,79,0.00,,,0.00,WeatherTracker,2013-11-18 12:17:00,
2013-11-18 05:22:00,36.5,30.6,30.25,NW,317,0.0,1.0,79,0.00,,,0.00,WeatherTracker,2013-11-18 12:22:00,
2013-11-18 05:27:00,36.4,30.5,30.25,NW,317,0.0,0.0,79,0.00,,,0.00,WeatherTracker,2013-11-18 12:27:00,
2013-11-18 05:32:00,36.5,30.6,30.25,NW,317,0.0,0.0,79,0.00,,,0.00,WeatherTracker,2013-11-18 12:32:00,
2013-11-18 05:37:00,36.4,30.5,30.24,NW,317,0.0,0.0,79,0.00,,,0.00,WeatherTracker,2013-11-18 12:37:00,
2013-11-18 05:42:00,36.5,30.6,30.25,NW,317,0.0,0.0,79,0.00,,,0.00,WeatherTracker,2013-11-18 12:42:00,
2013-11-18 05:47:00,36.5,30.6,30.25,NW,317,0.0,0.0,79,0.00,,,0.00,WeatherTracker,2013-11-18 12:47:00,
2013-11-18 05:52:00,36.8,30.6,30.25,NW,317,0.0,0.0,78,0.00,,,0.00,WeatherTracker,2013-11-18 12:52:00,
2013-11-18 05:57:00,37.1,30.6,30.25,NW,317,0.0,0.0,77,0.00,,,0.00,WeatherTracker,2013-11-18 12:57:00,
2013-11-18 06:02:00,37.0,30.5,30.26,NW,317,0.0,0.0,77,0.00,,,0.00,WeatherTracker,2013-11-18 13:02:00,
2013-11-18 06:07:00,37.1,30.2,30.26,NW,317,0.0,1.0,76,0.00,,,0.00,WeatherTracker,2013-11-18 13:07:00,
2013-11-18 06:12:00,37.1,30.2,30.25,NW,317,1.0,1.0,76,0.00,,,0.00,WeatherTracker,2013-11-18 13:12:00,
2013-11-18 06:17:00,37.6,30.4,30.25,NW,317,0.0,1.0,75,0.00,,,0.00,WeatherTracker,2013-11-18 13:17:00,
2013-11-18 06:22:00,38.0,30.1,30.26,NW,317,0.0,2.0,73,0.00,,,0.00,WeatherTracker,2013-11-18 13:22:00,
2013-11-18 06:27:00,38.0,30.1,30.25,NW,317,0.0,2.0,73,0.00,,,0.00,WeatherTracker,2013-11-18 13:27:00,
2013-11-18 06:33:00,37.7,30.2,30.25,NW,317,0.0,0.0,74,0.00,,,0.00,WeatherTracker,2013-11-18 13:33:00,
2013-11-18 06:38:00,37.7,30.2,30.26,NW,317,0.0,1.0,74,0.00,,,0.00,WeatherTracker,2013-11-18 13:38:00,
2013-11-18 06:43:00,38.3,30.1,30.26,NW,317,0.0,1.0,72,0.00,,,0.00,WeatherTracker,2013-11-18 13:43:00,
2013-11-18 06:48:00,38.4,30.2,30.27,NW,317,0.0,0.0,72,0.00,,,0.00,WeatherTracker,2013-11-18 13:48:00,
2013-11-18 06:53:00,38.4,30.2,30.27,NW,317,0.0,0.0,72,0.00,,,0.00,WeatherTracker,2013-11-18 13:53:00,
2013-11-18 06:58:00,38.3,30.1,30.27,NW,317,0.0,0.0,72,0.00,,,0.00,WeatherTracker,2013-11-18 13:58:00,
2013-11-18 07:03:00,38.4,30.2,30.28,NW,317,0.0,0.0,72,0.00,,,0.00,WeatherTracker,2013-11-18 14:03:00,
2013-11-18 07:08:00,38.8,30.6,30.29,NW,317,0.0,0.0,72,0.00,,,0.00,WeatherTracker,2013-11-18 14:08:00,
2013-11-18 07:13:00,39.4,30.8,30.29,NW,317,0.0,1.0,71,0.00,,,0.00,WeatherTracker,2013-11-18 14:13:00,
2013-11-18 07:18:00,39.8,30.8,30.29,NW,317,0.0,1.0,70,0.00,,,0.00,WeatherTracker,2013-11-18 14:18:00,
2013-11-18 07:23:00,39.9,30.9,30.30,NW,317,0.0,1.0,70,0.00,,,0.00,WeatherTracker,2013-11-18 14:23:00,
2013-11-18 07:28:00,40.0,30.7,30.30,NW,317,0.0,1.0,69,0.00,,,0.00,WeatherTracker,2013-11-18 14:28:00,
2013-11-18 07:33:00,39.9,30.6,30.30,SSW,207,0.0,2.0,69,0.00,,,0.00,WeatherTracker,2013-11-18 14:33:00,
2013-11-18 07:38:00,40.0,31.0,30.30,SW,225,0.0,2.0,70,0.00,,,0.00,WeatherTracker,2013-11-18 14:38:00,
2013-11-18 07:43:00,40.6,31.2,30.30,SSW,212,0.0,2.0,69,0.00,,,0.00,WeatherTracker,2013-11-18 14:43:00,
2013-11-18 07:48:00,40.9,31.5,30.30,SSW,213,0.0,2.0,69,0.00,,,0.00,WeatherTracker,2013-11-18 14:48:00,
2013-11-18 07:53:00,41.1,31.4,30.30,SSW,213,0.0,1.0,68,0.00,,,0.00,WeatherTracker,2013-11-18 14:53:00,
2013-11-18 07:58:00,41.6,31.8,30.30,SW,219,0.0,1.0,68,0.00,,,0.00,WeatherTracker,2013-11-18 14:58:00,
2013-11-18 08:03:00,42.0,31.5,30.30,SW,221,0.0,2.0,66,0.00,,,0.00,WeatherTracker,2013-11-18 15:03:00,
2013-11-18 08:08:00,42.1,31.6,30.31,SW,221,0.0,2.0,66,0.00,,,0.00,WeatherTracker,2013-11-18 15:08:00,
2013-11-18 08:13:00,42.2,31.7,30.31,NNW,348,0.0,2.0,66,0.00,,,0.00,WeatherTracker,2013-11-18 15:13:00,
2013-11-18 08:18:00,42.3,31.8,30.31,NNW,348,0.0,2.0,66,0.00,,,0.00,WeatherTracker,2013-11-18 15:18:00,
2013-11-18 08:23:00,42.7,31.8,30.31,NNW,348,2.0,2.0,65,0.00,,,0.00,WeatherTracker,2013-11-18 15:23:00,
2013-11-18 08:28:00,42.9,31.6,30.31,SSW,205,0.0,3.0,64,0.00,,,0.00,WeatherTracker,2013-11-18 15:28:00,
2013-11-18 08:33:00,43.4,32.0,30.31,SSW,205,0.0,3.0,64,0.00,,,0.00,WeatherTracker,2013-11-18 15:33:00,
2013-11-18 08:38:00,44.0,32.2,30.31,SW,223,0.0,3.0,63,0.00,,,0.00,WeatherTracker,2013-11-18 15:38:00,
2013-11-18 08:43:00,44.4,32.2,30.31,SW,224,0.0,2.0,62,0.00,,,0.00,WeatherTracker,2013-11-18 15:43:00,
2013-11-18 08:48:00,44.6,32.0,30.31,SSW,196,0.0,3.0,61,0.00,,,0.00,WeatherTracker,2013-11-18 15:48:00,
2013-11-18 08:52:00,44.7,31.7,30.31,WSW,246,3.0,3.0,60,0.00,,,0.00,WeatherTracker,2013-11-18 15:52:00,
2013-11-18 08:57:00,44.8,31.8,30.31,WSW,240,0.0,4.0,60,0.00,,,0.00,WeatherTracker,2013-11-18 15:57:00,
2013-11-18 09:02:00,44.7,31.7,30.31,SW,233,0.0,4.0,60,0.00,,,0.00,WeatherTracker,2013-11-18 16:02:00,
2013-11-18 09:07:00,44.6,31.6,30.31,SW,217,0.0,4.0,60,0.00,,,0.00,WeatherTracker,2013-11-18 16:07:00,
2013-11-18 09:12:00,44.9,31.9,30.32,SW,217,0.0,4.0,60,0.00,,,0.00,WeatherTracker,2013-11-18 16:12:00,
2013-11-18 09:17:00,45.1,32.1,30.32,WSW,252,2.0,2.0,60,0.00,,,0.00,WeatherTracker,2013-11-18 16:17:00,
2013-11-18 09:22:00,45.1,31.6,30.31,WSW,257,1.0,4.0,59,0.00,,,0.00,WeatherTracker,2013-11-18 16:22:00,
2013-11-18 09:27:00,45.0,31.5,30.32,SW,219,0.0,4.0,59,0.00,,,0.00,WeatherTracker,2013-11-18 16:27:00,
2013-11-18 09:32:00,45.0,31.5,30.32,NNW,341,0.0,2.0,59,0.00,,,0.00,WeatherTracker,2013-11-18 16:32:00,
2013-11-18 09:37:00,44.9,31.9,30.32,NNW,340,0.0,2.0,60,0.00,,,0.00,WeatherTracker,2013-11-18 16:37:00,
2013-11-18 09:42:00,45.0,31.5,30.32,NNW,342,0.0,1.0,59,0.00,,,0.00,WeatherTracker,2013-11-18 16:42:00,
2013-11-18 09:47:00,44.9,31.5,30.32,SSE,165,0.0,3.0,59,0.00,,,0.00,WeatherTracker,2013-11-18 16:47:00,
2013-11-18 09:52:00,45.0,31.5,30.32,South,175,0.0,3.0,59,0.00,,,0.00,WeatherTracker,2013-11-18 16:52:00,
2013-11-18 09:57:00,45.4,31.9,30.32,SSW,202,0.0,1.0,59,0.00,,,0.00,WeatherTracker,2013-11-18 16:57:00,
2013-11-18 10:02:00,45.2,31.7,30.32,SSW,202,0.0,2.0,59,0.00,,,0.00,WeatherTracker,2013-11-18 17:02:00,
2013-11-18 10:07:00,45.3,31.4,30.32,SSW,202,0.0,2.0,58,0.00,,,0.00,WeatherTracker,2013-11-18 17:07:00,
2013-11-18 10:12:00,45.8,31.9,30.32,SW,234,1.0,2.0,58,0.00,,,0.00,WeatherTracker,2013-11-18 17:12:00,
2013-11-18 10:17:00,45.8,31.9,30.32,South,180,0.0,4.0,58,0.00,,,0.00,WeatherTracker,2013-11-18 17:17:00,
2013-11-18 10:22:00,46.0,31.6,30.32,WSW,239,0.0,4.0,57,0.00,,,0.00,WeatherTracker,2013-11-18 17:22:00,
2013-11-18 10:28:00,46.2,32.2,30.32,WSW,248,0.0,3.0,58,0.00,,,0.00,WeatherTracker,2013-11-18 17:28:00,
2013-11-18 10:32:00,46.0,32.1,30.32,WSW,247,0.0,2.0,58,0.00,,,0.00,WeatherTracker,2013-11-18 17:32:00,
2013-11-18 10:38:00,46.3,31.9,30.32,West,270,0.0,2.0,57,0.00,,,0.00,WeatherTracker,2013-11-18 17:38:00,
2013-11-18 10:43:00,46.4,32.0,30.32,West,271,0.0,2.0,57,0.00,,,0.00,WeatherTracker,2013-11-18 17:43:00,
2013-11-18 10:48:00,46.7,32.3,30.32,West,271,0.0,2.0,57,0.00,,,0.00,WeatherTracker,2013-11-18 17:48:00,
2013-11-18 10:53:00,47.4,32.1,30.32,West,281,0.0,1.0,55,0.00,,,0.00,WeatherTracker,2013-11-18 17:53:00,
2013-11-18 10:58:00,47.9,33.0,30.32,West,281,0.0,2.0,56,0.00,,,0.00,WeatherTracker,2013-11-18 17:58:00,
2013-11-18 11:03:00,48.3,33.3,30.32,West,281,0.0,2.0,56,0.00,,,0.00,WeatherTracker,2013-11-18 18:03:00,
2013-11-18 11:08:00,48.4,32.5,30.31,WSW,246,0.0,2.0,54,0.00,,,0.00,WeatherTracker,2013-11-18 18:08:00,
2013-11-18 11:13:00,48.8,32.9,30.31,West,267,0.0,3.0,54,0.00,,,0.00,WeatherTracker,2013-11-18 18:13:00,
2013-11-18 11:18:00,48.8,32.4,30.30,SE,144,0.0,3.0,53,0.00,,,0.00,WeatherTracker,2013-11-18 18:18:00,
2013-11-18 11:23:00,49.3,32.4,30.30,SSE,154,1.0,2.0,52,0.00,,,0.00,WeatherTracker,2013-11-18 18:23:00,
2013-11-18 11:28:00,49.7,33.3,30.30,SSE,164,0.0,2.0,53,0.00,,,0.00,WeatherTracker,2013-11-18 18:28:00,
2013-11-18 11:33:00,50.1,33.2,30.30,NW,321,0.0,3.0,52,0.00,,,0.00,WeatherTracker,2013-11-18 18:33:00,
2013-11-18 11:38:00,50.5,33.1,30.29,NW,319,0.0,3.0,51,0.00,,,0.00,WeatherTracker,2013-11-18 18:38:00,
2013-11-18 11:43:00,50.3,32.4,30.29,SSW,197,0.0,3.0,50,0.00,,,0.00,WeatherTracker,2013-11-18 18:43:00,
2013-11-18 11:48:00,50.5,32.6,30.28,SW,224,0.0,3.0,50,0.00,,,0.00,WeatherTracker,2013-11-18 18:48:00,
2013-11-18 11:53:00,50.4,33.0,30.28,SSE,161,1.0,3.0,51,0.00,,,0.00,WeatherTracker,2013-11-18 18:53:00,
2013-11-18 11:58:00,50.7,33.2,30.28,SSE,164,0.0,3.0,51,0.00,,,0.00,WeatherTracker,2013-11-18 18:58:00,
2013-11-18 12:03:00,51.0,33.5,30.28,SSE,163,0.0,2.0,51,0.00,,,0.00,WeatherTracker,2013-11-18 19:03:00,
2013-11-18 12:09:00,51.3,33.3,30.27,South,173,0.0,1.0,50,0.00,,,0.00,WeatherTracker,2013-11-18 19:09:00,
2013-11-18 12:14:00,51.2,32.2,30.27,WSW,255,1.0,4.0,48,0.00,,,0.00,WeatherTracker,2013-11-18 19:14:00,
2013-11-18 12:19:00,51.5,32.5,30.27,SW,229,0.0,4.0,48,0.00,,,0.00,WeatherTracker,2013-11-18 19:19:00,
2013-11-18 12:24:00,52.0,32.9,30.27,WSW,253,0.0,2.0,48,0.00,,,0.00,WeatherTracker,2013-11-18 19:24:00,
2013-11-18 12:29:00,52.0,32.4,30.27,NW,326,1.0,2.0,47,0.00,,,0.00,WeatherTracker,2013-11-18 19:29:00,
2013-11-18 12:34:00,52.2,32.1,30.27,WNW,290,0.0,3.0,46,0.00,,,0.00,WeatherTracker,2013-11-18 19:34:00,
2013-11-18 12:39:00,52.7,32.0,30.27,West,267,0.0,3.0,45,0.00,,,0.00,WeatherTracker,2013-11-18 19:39:00,
2013-11-18 12:44:00,53.2,32.4,30.27,NW,307,0.0,2.0,45,0.00,,,0.00,WeatherTracker,2013-11-18 19:44:00,
2013-11-18 12:49:00,53.4,32.0,30.27,WSW,255,1.0,2.0,44,0.00,,,0.00,WeatherTracker,2013-11-18 19:49:00,
2013-11-18 12:54:00,53.6,32.2,30.26,SSW,194,0.0,3.0,44,0.00,,,0.00,WeatherTracker,2013-11-18 19:54:00,
2013-11-18 12:59:00,53.9,32.5,30.26,SSW,193,0.0,2.0,44,0.00,,,0.00,WeatherTracker,2013-11-18 19:59:00,
2013-11-18 13:04:00,54.3,32.9,30.26,South,183,0.0,1.0,44,0.00,,,0.00,WeatherTracker,2013-11-18 20:04:00,
2013-11-18 13:09:00,54.9,32.8,30.25,NW,317,0.0,3.0,43,0.00,,,0.00,WeatherTracker,2013-11-18 20:09:00,
2013-11-18 13:14:00,55.7,34.1,30.25,NW,307,0.0,3.0,44,0.00,,,0.00,WeatherTracker,2013-11-18 20:14:00,
2013-11-18 13:19:00,55.7,33.0,30.25,NE,55,0.0,4.0,42,0.00,,,0.00,WeatherTracker,2013-11-18 20:19:00,
2013-11-18 13:24:00,56.0,32.6,30.25,South,180,0.0,4.0,41,0.00,,,0.00,WeatherTracker,2013-11-18 20:24:00,
2013-11-18 13:29:00,56.0,33.2,30.25,South,184,0.0,3.0,42,0.00,,,0.00,WeatherTracker,2013-11-18 20:29:00,
2013-11-18 13:35:00,56.6,33.8,30.25,WNW,300,0.0,3.0,42,0.00,,,0.00,WeatherTracker,2013-11-18 20:35:00,
2013-11-18 13:40:00,56.8,33.4,30.25,NW,323,0.0,3.0,41,0.00,,,0.00,WeatherTracker,2013-11-18 20:40:00,
2013-11-18 13:45:00,56.8,33.4,30.25,NW,323,0.0,2.0,41,0.00,,,0.00,WeatherTracker,2013-11-18 20:45:00,
2013-11-18 13:50:00,56.9,33.4,30.25,SSE,163,0.0,2.0,41,0.00,,,0.00,WeatherTracker,2013-11-18 20:50:00,
2013-11-18 13:55:00,56.8,32.7,30.24,West,271,0.0,4.0,40,0.00,,,0.00,WeatherTracker,2013-11-18 20:55:00,
2013-11-18 14:00:00,57.3,33.8,30.24,WSW,245,3.0,4.0,41,0.00,,,0.00,WeatherTracker,2013-11-18 21:00:00,
2013-11-18 14:05:00,57.9,33.1,30.23,SW,229,1.0,5.0,39,0.00,,,0.00,WeatherTracker,2013-11-18 21:05:00,
2013-11-18 14:10:00,57.7,32.9,30.24,SE,130,0.0,5.0,39,0.00,,,0.00,WeatherTracker,2013-11-18 21:10:00,
2013-11-18 14:15:00,58.0,33.2,30.23,West,267,1.0,7.0,39,0.00,,,0.00,WeatherTracker,2013-11-18 21:15:00,
2013-11-18 14:20:00,58.2,34.0,30.23,West,277,0.0,7.0,40,0.00,,,0.00,WeatherTracker,2013-11-18 21:20:00,
2013-11-18 14:25:00,59.3,33.7,30.23,ESE,118,3.0,3.0,38,0.00,,,0.00,WeatherTracker,2013-11-18 21:25:00,
2013-11-18 14:30:00,58.9,33.3,30.23,SSE,149,3.0,4.0,38,0.00,,,0.00,WeatherTracker,2013-11-18 21:30:00,
2013-11-18 14:35:00,58.2,32.7,30.23,NW,308,0.0,4.0,38,0.00,,,0.00,WeatherTracker,2013-11-18 21:35:00,
2013-11-18 14:40:00,58.8,33.3,30.22,SSW,210,1.0,4.0,38,0.00,,,0.00,WeatherTracker,2013-11-18 21:40:00,
2013-11-18 14:45:00,58.8,32.6,30.22,SW,234,0.0,3.0,37,0.00,,,0.00,WeatherTracker,2013-11-18 21:45:00,
2013-11-18 14:50:00,59.0,32.8,30.22,SW,227,0.0,2.0,37,0.00,,,0.00,WeatherTracker,2013-11-18 21:50:00,
2013-11-18 14:55:00,58.8,32.6,30.22,NW,320,1.0,2.0,37,0.00,,,0.00,WeatherTracker,2013-11-18 21:55:00,
2013-11-18 15:00:00,58.9,33.3,30.22,NW,325,0.0,2.0,38,0.00,,,0.00,WeatherTracker,2013-11-18 22:00:00,
2013-11-18 15:05:00,59.1,32.9,30.22,NW,321,0.0,4.0,37,0.00,,,0.00,WeatherTracker,2013-11-18 22:05:00,
2013-11-18 15:10:00,59.4,31.7,30.21,SE,142,0.0,4.0,35,0.00,,,0.00,WeatherTracker,2013-11-18 22:10:00,
2013-11-18 15:15:00,59.1,32.9,30.21,SE,142,1.0,2.0,37,0.00,,,0.00,WeatherTracker,2013-11-18 22:15:00,
2013-11-18 15:21:00,58.8,31.9,30.21,SE,142,1.0,2.0,36,0.00,,,0.00,WeatherTracker,2013-11-18 22:21:00,
2013-11-18 15:26:00,59.0,32.8,30.21,ESE,115,0.0,2.0,37,0.00,,,0.00,WeatherTracker,2013-11-18 22:26:00,
2013-11-18 15:31:00,59.3,31.7,30.21,ESE,115,1.0,2.0,35,0.00,,,0.00,WeatherTracker,2013-11-18 22:31:00,
2013-11-18 15:36:00,59.1,32.2,30.21,ESE,115,0.0,2.0,36,0.00,,,0.00,WeatherTracker,2013-11-18 22:36:00,
2013-11-18 15:41:00,59.1,31.5,30.21,ESE,115,0.0,1.0,35,0.00,,,0.00,WeatherTracker,2013-11-18 22:41:00,
2013-11-18 15:46:00,58.7,31.8,30.21,ESE,115,0.0,2.0,36,0.00,,,0.00,WeatherTracker,2013-11-18 22:46:00,
2013-11-18 15:51:00,58.0,31.9,30.21,ESE,115,0.0,2.0,37,0.00,,,0.00,WeatherTracker,2013-11-18 22:51:00,
2013-11-18 15:56:00,58.4,32.2,30.21,ESE,115,0.0,2.0,37,0.00,,,0.00,WeatherTracker,2013-11-18 22:56:00,
2013-11-18 16:01:00,59.0,32.1,30.21,ESE,115,0.0,1.0,36,0.00,,,0.00,WeatherTracker,2013-11-18 23:01:00,
2013-11-18 16:06:00,58.8,31.9,30.21,ESE,115,0.0,1.0,36,0.00,,,0.00,WeatherTracker,2013-11-18 23:06:00,
2013-11-18 16:11:00,58.3,31.5,30.21,ESE,115,0.0,2.0,36,0.00,,,0.00,WeatherTracker,2013-11-18 23:11:00,
2013-11-18 16:16:00,58.0,31.9,30.21,ESE,115,2.0,3.0,37,0.00,,,0.00,WeatherTracker,2013-11-18 23:16:00,
2013-11-18 16:21:00,57.8,31.7,30.21,ESE,115,0.0,3.0,37,0.00,,,0.00,WeatherTracker,2013-11-18 23:21:00,
2013-11-18 16:26:00,58.0,31.9,30.21,ESE,115,0.0,3.0,37,0.00,,,0.00,WeatherTracker,2013-11-18 23:26:00,
2013-11-18 16:31:00,57.6,32.2,30.21,ESE,115,0.0,1.0,38,0.00,,,0.00,WeatherTracker,2013-11-18 23:31:00,
2013-11-18 16:36:00,57.6,32.2,30.21,ESE,115,0.0,1.0,38,0.00,,,0.00,WeatherTracker,2013-11-18 23:36:00,
2013-11-18 16:41:00,57.3,31.9,30.21,ESE,115,0.0,2.0,38,0.00,,,0.00,WeatherTracker,2013-11-18 23:41:00,
2013-11-18 16:46:00,57.1,31.7,30.21,ESE,115,1.0,2.0,38,0.00,,,0.00,WeatherTracker,2013-11-18 23:46:00,
2013-11-18 16:51:00,56.8,32.1,30.21,ESE,115,0.0,2.0,39,0.00,,,0.00,WeatherTracker,2013-11-18 23:51:00,
2013-11-18 16:56:00,56.6,31.9,30.20,ESE,115,0.0,2.0,39,0.00,,,0.00,WeatherTracker,2013-11-18 23:56:00,
2013-11-18 17:01:00,56.3,32.3,30.20,ESE,115,0.0,1.0,40,0.00,,,0.00,WeatherTracker,2013-11-19 00:01:00,
2013-11-18 17:06:00,56.0,32.0,30.21,ESE,115,1.0,2.0,40,0.00,,,0.00,WeatherTracker,2013-11-19 00:06:00,
2013-11-18 17:11:00,55.7,32.4,30.20,ESE,115,0.0,2.0,41,0.00,,,0.00,WeatherTracker,2013-11-19 00:11:00,
2013-11-18 17:17:00,55.4,32.7,30.20,ESE,115,0.0,2.0,42,0.00,,,0.00,WeatherTracker,2013-11-19 00:17:00,
2013-11-18 17:22:00,54.9,32.8,30.20,ESE,115,0.0,1.0,43,0.00,,,0.00,WeatherTracker,2013-11-19 00:22:00,
2013-11-18 17:27:00,54.5,32.5,30.20,ESE,115,0.0,0.0,43,0.00,,,0.00,WeatherTracker,2013-11-19 00:27:00,
2013-11-18 17:32:00,54.3,32.9,30.21,ESE,115,0.0,0.0,44,0.00,,,0.00,WeatherTracker,2013-11-19 00:32:00,
2013-11-18 17:37:00,54.2,32.8,30.21,ESE,115,0.0,0.0,44,0.00,,,0.00,WeatherTracker,2013-11-19 00:37:00,
2013-11-18 17:42:00,54.0,32.6,30.21,ESE,115,0.0,1.0,44,0.00,,,0.00,WeatherTracker,2013-11-19 00:42:00,
2013-11-18 17:47:00,53.3,33.1,30.21,ESE,115,0.0,1.0,46,0.00,,,0.00,WeatherTracker,2013-11-19 00:47:00,
2013-11-18 17:52:00,53.1,32.9,30.21,ESE,115,0.0,2.0,46,0.00,,,0.00,WeatherTracker,2013-11-19 00:52:00,
2013-11-18 17:57:00,52.9,32.7,30.22,ESE,115,0.0,2.0,46,0.00,,,0.00,WeatherTracker,2013-11-19 00:57:00,
2013-11-18 18:02:00,52.6,32.9,30.22,ESE,115,0.0,1.0,47,0.00,,,0.00,WeatherTracker,2013-11-19 01:02:00,
2013-11-18 18:07:00,52.0,32.9,30.22,ESE,115,0.0,1.0,48,0.00,,,0.00,WeatherTracker,2013-11-19 01:07:00,
2013-11-18 18:12:00,50.8,33.3,30.22,ESE,115,0.0,1.0,51,0.00,,,0.00,WeatherTracker,2013-11-19 01:12:00,
2013-11-18 18:17:00,49.8,33.4,30.22,ESE,115,0.0,1.0,53,0.00,,,0.00,WeatherTracker,2013-11-19 01:17:00,
2013-11-18 18:22:00,49.8,33.4,30.23,ESE,115,0.0,0.0,53,0.00,,,0.00,WeatherTracker,2013-11-19 01:22:00,
2013-11-18 18:27:00,49.1,33.2,30.23,ESE,115,0.0,0.0,54,0.00,,,0.00,WeatherTracker,2013-11-19 01:27:00,
2013-11-18 18:32:00,48.5,33.5,30.23,ESE,115,0.0,0.0,56,0.00,,,0.00,WeatherTracker,2013-11-19 01:32:00,
2013-11-18 18:37:00,48.1,33.6,30.23,ESE,115,0.0,0.0,57,0.00,,,0.00,WeatherTracker,2013-11-19 01:37:00,
2013-11-18 18:42:00,47.5,33.9,30.23,ESE,115,0.0,0.0,59,0.00,,,0.00,WeatherTracker,2013-11-19 01:42:00,
2013-11-18 18:47:00,47.5,33.9,30.23,ESE,115,1.0,0.0,59,0.00,,,0.00,WeatherTracker,2013-11-19 01:47:00,
2013-11-18 18:52:00,47.4,33.8,30.23,ESE,115,0.0,2.0,59,0.00,,,0.00,WeatherTracker,2013-11-19 01:52:00,
2013-11-18 18:57:00,47.6,34.0,30.23,ESE,115,0.0,2.0,59,0.00,,,0.00,WeatherTracker,2013-11-19 01:57:00,
2013-11-18 19:02:00,47.2,33.6,30.23,ESE,115,0.0,0.0,59,0.00,,,0.00,WeatherTracker,2013-11-19 02:02:00,
2013-11-18 19:07:00,47.2,34.0,30.23,ESE,115,0.0,0.0,60,0.00,,,0.00,WeatherTracker,2013-11-19 02:07:00,
2013-11-18 19:12:00,46.6,33.9,30.23,ESE,115,0.0,0.0,61,0.00,,,0.00,WeatherTracker,2013-11-19 02:12:00,
2013-11-18 19:17:00,45.9,34.0,30.23,ESE,115,0.0,0.0,63,0.00,,,0.00,WeatherTracker,2013-11-19 02:17:00,
2013-11-18 19:22:00,45.8,33.9,30.23,ESE,115,0.0,0.0,63,0.00,,,0.00,WeatherTracker,2013-11-19 02:22:00,
2013-11-18 19:27:00,45.5,33.6,30.23,ESE,115,0.0,1.0,63,0.00,,,0.00,WeatherTracker,2013-11-19 02:27:00,
2013-11-18 19:32:00,45.4,33.9,30.23,ESE,115,0.0,0.0,64,0.00,,,0.00,WeatherTracker,2013-11-19 02:32:00,
2013-11-18 19:37:00,45.0,33.6,30.23,ESE,115,0.0,0.0,64,0.00,,,0.00,WeatherTracker,2013-11-19 02:37:00,
2013-11-18 19:42:00,44.9,33.9,30.23,ESE,115,0.0,0.0,65,0.00,,,0.00,WeatherTracker,2013-11-19 02:42:00,
2013-11-18 19:47:00,44.9,33.9,30.23,ESE,115,0.0,0.0,65,0.00,,,0.00,WeatherTracker,2013-11-19 02:47:00,
2013-11-18 19:52:00,44.9,33.9,30.23,ESE,115,0.0,0.0,65,0.00,,,0.00,WeatherTracker,2013-11-19 02:52:00,
2013-11-18 19:57:00,44.8,33.8,30.23,ESE,115,0.0,0.0,65,0.00,,,0.00,WeatherTracker,2013-11-19 02:57:00,
2013-11-18 20:02:00,44.7,33.7,30.23,ESE,115,0.0,0.0,65,0.00,,,0.00,WeatherTracker,2013-11-19 03:02:00,
2013-11-18 20:07:00,44.7,33.7,30.23,ESE,115,0.0,0.0,65,0.00,,,0.00,WeatherTracker,2013-11-19 03:07:00,
2013-11-18 20:12:00,44.6,33.6,30.24,ESE,115,0.0,1.0,65,0.00,,,0.00,WeatherTracker,2013-11-19 03:12:00,
2013-11-18 20:17:00,44.3,33.3,30.24,ESE,115,0.0,1.0,65,0.00,,,0.00,WeatherTracker,2013-11-19 03:17:00,
2013-11-18 20:22:00,44.0,33.4,30.24,ESE,115,0.0,0.0,66,0.00,,,0.00,WeatherTracker,2013-11-19 03:22:00,
2013-11-18 20:27:00,44.0,33.4,30.24,ESE,115,0.0,0.0,66,0.00,,,0.00,WeatherTracker,2013-11-19 03:27:00,
2013-11-18 20:32:00,44.1,33.5,30.24,ESE,115,1.0,1.0,66,0.00,,,0.00,WeatherTracker,2013-11-19 03:32:00,
2013-11-18 20:37:00,44.3,33.7,30.24,ESE,115,0.0,2.0,66,0.00,,,0.00,WeatherTracker,2013-11-19 03:37:00,
2013-11-18 20:42:00,44.1,33.5,30.24,ESE,115,0.0,2.0,66,0.00,,,0.00,WeatherTracker,2013-11-19 03:42:00,
2013-11-18 20:47:00,43.9,33.3,30.24,ESE,115,0.0,1.0,66,0.00,,,0.00,WeatherTracker,2013-11-19 03:47:00,
2013-11-18 20:52:00,43.8,33.2,30.24,ESE,115,0.0,1.0,66,0.00,,,0.00,WeatherTracker,2013-11-19 03:52:00,
2013-11-18 20:57:00,43.6,33.4,30.24,ESE,115,0.0,0.0,67,0.00,,,0.00,WeatherTracker,2013-11-19 03:57:00,
2013-11-18 21:02:00,43.3,33.5,30.24,ESE,115,0.0,0.0,68,0.00,,,0.00,WeatherTracker,2013-11-19 04:02:00,
2013-11-18 21:07:00,43.1,33.3,30.25,ESE,115,0.0,0.0,68,0.00,,,0.00,WeatherTracker,2013-11-19 04:07:00,
2013-11-18 21:08:00,43.1,33.3,30.25,ESE,115,0.0,0.0,68,0.00,,,0.00,WeatherTracker,2013-11-19 04:08:00,
2013-11-18 21:13:00,42.9,33.1,30.25,ESE,115,0.0,0.0,68,0.00,,,0.00,WeatherTracker,2013-11-19 04:13:00,
2013-11-18 21:18:00,42.9,33.1,30.25,ESE,115,0.0,0.0,68,0.00,,,0.00,WeatherTracker,2013-11-19 04:18:00,
2013-11-18 21:23:00,42.4,33.3,30.25,ESE,115,0.0,0.0,70,0.00,,,0.00,WeatherTracker,2013-11-19 04:23:00,
2013-11-18 21:28:00,42.0,33.3,30.25,ESE,115,0.0,1.0,71,0.00,,,0.00,WeatherTracker,2013-11-19 04:28:00,
2013-11-18 21:33:00,41.8,33.1,30.25,ESE,115,0.0,1.0,71,0.00,,,0.00,WeatherTracker,2013-11-19 04:33:00,
2013-11-18 21:38:00,41.8,33.1,30.25,ESE,115,0.0,1.0,71,0.00,,,0.00,WeatherTracker,2013-11-19 04:38:00,
2013-11-18 21:43:00,41.7,33.4,30.25,ESE,115,0.0,0.0,72,0.00,,,0.00,WeatherTracker,2013-11-19 04:43:00,
2013-11-18 21:48:00,41.7,33.0,30.25,ESE,115,0.0,0.0,71,0.00,,,0.00,WeatherTracker,2013-11-19 04:48:00,
2013-11-18 21:53:00,41.6,33.3,30.25,ESE,115,0.0,0.0,72,0.00,,,0.00,WeatherTracker,2013-11-19 04:53:00,
2013-11-18 21:58:00,41.4,33.1,30.25,ESE,115,0.0,0.0,72,0.00,,,0.00,WeatherTracker,2013-11-19 04:58:00,
2013-11-18 22:01:00,41.4,33.1,30.25,ESE,115,0.0,0.0,72,0.00,,,0.00,WeatherTracker,2013-11-19 05:01:00,
2013-11-18 22:02:00,41.4,33.1,30.25,ESE,115,0.0,0.0,72,0.00,,,0.00,WeatherTracker,2013-11-19 05:02:00,
2013-11-18 22:03:00,41.4,33.1,30.25,ESE,115,0.0,0.0,72,0.00,,,0.00,WeatherTracker,2013-11-19 05:03:00,
2013-11-18 22:08:00,41.2,33.2,30.25,ESE,115,0.0,0.0,73,0.00,,,0.00,WeatherTracker,2013-11-19 05:08:00,
2013-11-18 22:13:00,41.1,32.8,30.25,ESE,115,0.0,0.0,72,0.00,,,0.00,WeatherTracker,2013-11-19 05:13:00,
2013-11-18 22:18:00,40.9,32.6,30.25,ESE,115,0.0,0.0,72,0.00,,,0.00,WeatherTracker,2013-11-19 05:18:00,
2013-11-18 22:23:00,40.5,32.5,30.25,ESE,115,0.0,0.0,73,0.00,,,0.00,WeatherTracker,2013-11-19 05:23:00,
2013-11-18 22:28:00,40.4,32.8,30.25,ESE,115,0.0,2.0,74,0.00,,,0.00,WeatherTracker,2013-11-19 05:28:00,
2013-11-18 22:33:00,40.1,32.5,30.25,ESE,115,0.0,2.0,74,0.00,,,0.00,WeatherTracker,2013-11-19 05:33:00,
2013-11-18 22:38:00,39.9,32.6,30.25,ESE,115,0.0,0.0,75,0.00,,,0.00,WeatherTracker,2013-11-19 05:38:00,
2013-11-18 22:44:00,39.7,32.4,30.25,ESE,115,0.0,0.0,75,0.00,,,0.00,WeatherTracker,2013-11-19 05:44:00,
2013-11-18 22:49:00,39.7,32.4,30.25,ESE,115,0.0,0.0,75,0.00,,,0.00,WeatherTracker,2013-11-19 05:49:00,
2013-11-18 22:54:00,39.5,32.2,30.24,ESE,115,0.0,0.0,75,0.00,,,0.00,WeatherTracker,2013-11-19 05:54:00,
2013-11-18 22:59:00,39.6,32.3,30.25,ESE,115,0.0,0.0,75,0.00,,,0.00,WeatherTracker,2013-11-19 05:59:00,
2013-11-18 23:04:00,39.4,32.1,30.25,ESE,115,0.0,0.0,75,0.00,,,0.00,WeatherTracker,2013-11-19 06:04:00,
2013-11-18 23:09:00,39.2,32.3,30.25,ESE,115,0.0,0.0,76,0.00,,,0.00,WeatherTracker,2013-11-19 06:09:00,
2013-11-18 23:14:00,39.3,32.4,30.25,ESE,115,0.0,0.0,76,0.00,,,0.00,WeatherTracker,2013-11-19 06:14:00,
2013-11-18 23:19:00,39.0,32.1,30.25,ESE,115,0.0,0.0,76,0.00,,,0.00,WeatherTracker,2013-11-19 06:19:00,
2013-11-18 23:24:00,39.0,32.1,30.25,ESE,115,0.0,0.0,76,0.00,,,0.00,WeatherTracker,2013-11-19 06:24:00,
2013-11-18 23:29:00,38.7,32.1,30.25,ESE,115,0.0,0.0,77,0.00,,,0.00,WeatherTracker,2013-11-19 06:29:00,
2013-11-18 23:34:00,38.4,32.1,30.25,ESE,115,0.0,0.0,78,0.00,,,0.00,WeatherTracker,2013-11-19 06:34:00,
2013-11-18 23:39:00,38.4,32.1,30.24,ESE,115,0.0,0.0,78,0.00,,,0.00,WeatherTracker,2013-11-19 06:39:00,
2013-11-18 23:44:00,38.6,32.0,30.24,ESE,115,0.0,0.0,77,0.00,,,0.00,WeatherTracker,2013-11-19 06:44:00,
2013-11-18 23:49:00,38.6,32.0,30.24,ESE,115,0.0,0.0,77,0.00,,,0.00,WeatherTracker,2013-11-19 06:49:00,
2013-11-18 23:54:00,38.4,32.1,30.24,ESE,115,0.0,0.0,78,0.00,,,0.00,WeatherTracker,2013-11-19 06:54:00,
2013-11-18 23:59:00,38.4,32.1,30.24,ESE,115,0.0,1.0,78,0.00,,,0.00,WeatherTracker,2013-11-19 06:59:00,